| time (UTC) | temp F | wind direction | speed MPH | gust MPH | rain 1hr in | rain 24hr in | rain mn in | humidity % | barometer mb |
| 20260505061544 | 76 | 163 | 5.0 | 11.0 | 0.00 | 0.00 | 0.00 | 85 | 1008.8 |
| 20260505060145 | 76 | 175 | 4.0 | 11.0 | 0.00 | 0.00 | 0.00 | 84 | 1009.1 |
| 20260505054547 | 76 | 205 | 6.0 | 11.0 | 0.00 | 0.00 | 0.00 | 84 | 1009.2 |
| 20260505053036 | 76 | 194 | 5.0 | 10.0 | 0.00 | 0.00 | 0.00 | 83 | 1009.5 |
| 20260505051535 | 76 | 152 | 6.0 | 11.0 | 0.00 | 0.00 | 0.00 | 83 | 1009.5 |
| 20260505041529 | 77 | 182 | 6.0 | 12.0 | 0.00 | 0.00 | 0.00 | 82 | 1009.9 |
| 20260505040031 | 77 | 214 | 5.0 | 10.0 | 0.00 | 0.00 | 0.00 | 82 | 1010.0 |
| 20260505034532 | 77 | 188 | 6.0 | 12.0 | 0.00 | 0.00 | 0.00 | 82 | 1010.0 |
| 20260505033030 | 77 | 182 | 6.0 | 12.0 | 0.00 | 0.00 | 0.00 | 81 | 1009.9 |
| 20260505031527 | 77 | 157 | 8.0 | 14.0 | 0.00 | 0.00 | 0.00 | 81 | 1009.8 |
| 20260505030041 | 77 | 207 | 6.0 | 14.0 | 0.00 | 0.00 | 0.00 | 80 | 1009.7 |
| 20260505024525 | 77 | 144 | 4.0 | 12.0 | 0.00 | 0.00 | 0.00 | 80 | 1009.6 |
| 20260505023027 | 77 | 121 | 7.0 | 15.0 | 0.00 | 0.00 | 0.00 | 79 | 1009.3 |
| 20260505021525 | 77 | 142 | 8.0 | 15.0 | 0.00 | 0.00 | 0.00 | 79 | 1009.1 |
| 20260505020024 | 77 | 165 | 7.0 | 17.0 | 0.00 | 0.00 | 0.00 | 79 | 1009.0 |
| 20260505014525 | 77 | 171 | 7.0 | 15.0 | 0.00 | 0.00 | 0.00 | 78 | 1009.1 |
| 20260505013022 | 77 | 196 | 5.0 | 16.0 | 0.00 | 0.00 | 0.00 | 77 | 1009.2 |
| 20260505011523 | 77 | 157 | 6.0 | 14.0 | 0.00 | 0.00 | 0.00 | 77 | 1009.3 |
| 20260505010020 | 78 | 144 | 9.0 | 17.0 | 0.00 | 0.00 | 0.00 | 76 | 1009.2 |
| 20260505004533 | 78 | 161 | 7.0 | 14.0 | 0.00 | 0.00 | 0.00 | 75 | 1009.3 |
| 20260505003019 | 78 | 163 | 8.0 | 14.0 | 0.00 | 0.00 | 0.00 | 75 | 1009.3 |
| 20260505001519 | 79 | 156 | 8.0 | 18.0 | 0.00 | 0.00 | 0.00 | 74 | 1009.4 |
| 20260505000018 | 79 | 165 | 9.0 | 17.0 | 0.00 | 0.00 | 0.00 | 73 | 1009.4 |
| 20260504234519 | 80 | 181 | 5.0 | 15.0 | 0.00 | 0.00 | 0.00 | 72 | 1009.7 |
| 20260504233020 | 80 | 151 | 5.0 | 14.0 | 0.00 | 0.00 | 0.00 | 71 | 1009.9 |
| 20260504231514 | 80 | 182 | 9.0 | 16.0 | 0.00 | 0.00 | 0.00 | 71 | 1009.9 |
| 20260504230014 | 80 | 163 | 8.0 | 17.0 | 0.00 | 0.00 | 0.00 | 71 | 1009.8 |
| 20260504224513 | 80 | 150 | 8.0 | 18.0 | 0.00 | 0.00 | 0.00 | 70 | 1009.7 |
| 20260504223013 | 81 | 147 | 10.0 | 17.0 | 0.00 | 0.00 | 0.00 | 68 | 1009.8 |
| 20260504221513 | 81 | 128 | 10.0 | 18.0 | 0.00 | 0.00 | 0.00 | 68 | 1009.7 |
| 20260504220011 | 82 | 194 | 12.0 | 19.0 | 0.00 | 0.00 | 0.00 | 66 | 1009.6 |
| 20260504214507 | 82 | 163 | 11.0 | 17.0 | 0.00 | 0.00 | 0.00 | 66 | 1010.0 |
| 20260504213016 | 82 | 188 | 7.0 | 15.0 | 0.00 | 0.00 | 0.00 | 66 | 1010.2 |
| 20260504211503 | 83 | 157 | 8.0 | 15.0 | 0.00 | 0.00 | 0.00 | 65 | 1010.4 |
| 20260504210002 | 83 | 168 | 9.0 | 18.0 | 0.00 | 0.00 | 0.00 | 65 | 1010.5 |
| 20260504204600 | 83 | 148 | 10.0 | 19.0 | 0.00 | 0.00 | 0.00 | 65 | 1010.6 |
| 20260504203059 | 83 | 138 | 9.0 | 18.0 | 0.00 | 0.00 | 0.00 | 65 | 1010.8 |
| 20260504201601 | 83 | 167 | 8.0 | 19.0 | 0.00 | 0.00 | 0.00 | 64 | 1011.0 |
| 20260504200056 | 83 | 142 | 9.0 | 19.0 | 0.00 | 0.00 | 0.00 | 64 | 1011.3 |
| 20260504194602 | 84 | 186 | 9.0 | 17.0 | 0.00 | 0.00 | 0.00 | 62 | 1011.2 |
| 20260504193055 | 84 | 157 | 12.0 | 21.0 | 0.00 | 0.00 | 0.00 | 62 | 1011.4 |
| 20260504191613 | 83 | 119 | 9.0 | 20.0 | 0.00 | 0.00 | 0.00 | 64 | 1011.5 |
| 20260504190050 | 83 | 138 | 11.0 | 20.0 | 0.00 | 0.00 | 0.00 | 63 | 1011.8 |
| 20260504184556 | 84 | 167 | 8.0 | 17.0 | 0.00 | 0.00 | 0.00 | 62 | 1011.8 |
| 20260504183048 | 83 | 157 | 8.0 | 19.0 | 0.00 | 0.00 | 0.00 | 63 | 1011.9 |
| 20260504181547 | 82 | 174 | 9.0 | 17.0 | 0.00 | 0.00 | 0.00 | 64 | 1012.0 |
| 20260504180045 | 84 | 148 | 9.0 | 16.0 | 0.00 | 0.00 | 0.00 | 61 | 1012.0 |
| 20260504174542 | 84 | 157 | 9.0 | 19.0 | 0.00 | 0.00 | 0.00 | 62 | 1012.3 |
| 20260504173039 | 84 | 157 | 9.0 | 19.0 | 0.00 | 0.00 | 0.00 | 62 | 1012.6 |
| 20260504171540 | 83 | 174 | 11.0 | 19.0 | 0.00 | 0.00 | 0.00 | 63 | 1012.6 |
| 20260504081536 | 73 | 172 | 1.0 | 5.0 | 0.00 | 0.00 | 0.00 | 77 | 1014.5 |